This is the latest recevied weather packets stored in our database for station/object KJ4YLO. If no packets are shown the sender has not sent any weather packets the latest 10 day(s).
| Time | Temp. | Humidity | Pressure | Rain* | Wind** | Luminosity | Snow |
|---|---|---|---|---|---|---|---|
| 1777846875 | 21.67° C | 30% | 1016.6 hPa | 0 mm | - | 200 W/m² | - |
| 1777846574 | 21.67° C | 30% | 1016.6 hPa | 0 mm | - | 238 W/m² | - |
| 1777846271 | 21.67° C | 29% | 1016.6 hPa | 0 mm | - | 247 W/m² | - |
| 1777845968 | 21.67° C | 29% | 1016.6 hPa | 0 mm | - | 247 W/m² | - |
| 1777845361 | 22.22° C | 28% | 1016.6 hPa | 0 mm | - | 299 W/m² | - |
| 1777845058 | 22.22° C | 28% | 1016.6 hPa | 0 mm | - | 299 W/m² | - |
| 1777844756 | 22.22° C | 31% | 1016.6 hPa | 0 mm | - | 281 W/m² | - |
| 1777844452 | 22.22° C | 28% | 1016.9 hPa | 0 mm | - | 308 W/m² | - |
| 1777844151 | 21.67° C | 29% | 1016.9 hPa | 0 mm | - | 375 W/m² | - |
| 1777843847 | 21.67° C | 29% | 1016.9 hPa | 0 mm | - | 375 W/m² | - |
| 1777843545 | 21.67° C | 29% | 1016.9 hPa | 0 mm | - | 375 W/m² | - |
| 1777843242 | 22.78° C | 29% | 1016.9 hPa | 0 mm | - | 358 W/m² | - |
| 1777842939 | 21.67° C | 29% | 1016.9 hPa | 0 mm | - | 379 W/m² | - |
| 1777842634 | 21.67° C | 29% | 1016.9 hPa | 0 mm | - | 379 W/m² | - |
| 1777842332 | 22.22° C | 31% | 1016.9 hPa | 0 mm | - | 390 W/m² | - |
| 1777842027 | 22.22° C | 29% | 1016.9 hPa | 0 mm | - | 407 W/m² | - |
| 1777841724 | 22.22° C | 32% | 1017.3 hPa | 0 mm | - | 418 W/m² | - |
| 1777841420 | 21.67° C | 28% | 1017.3 hPa | 0 mm | - | 484 W/m² | - |
| 1777841118 | 21.67° C | 28% | 1017.3 hPa | 0 mm | - | 484 W/m² | - |
| 1777840815 | 21.67° C | 28% | 1017.3 hPa | 0 mm | - | 494 W/m² | - |
| 1777840512 | 21.11° C | 28% | 1017.3 hPa | 0 mm | - | 526 W/m² | - |
| 1777840209 | 21.11° C | 28% | 1017.6 hPa | 0 mm | - | 526 W/m² | - |
| 1777839906 | 22.22° C | 30% | 1018 hPa | 0 mm | - | 505 W/m² | - |
| 1777839604 | 21.11° C | 31% | 1017.6 hPa | 0 mm | - | 494 W/m² | - |
| 1777839302 | 21.11° C | 31% | 1018 hPa | 0 mm | - | 494 W/m² | - |
* Rain latest hour (hover to see other rain measurements)
** Current wind speed in m/s (hover to see current wind gust speed)